TimeMDT,TemperatureF,Dew PointF,Humidity,Sea Level PressureIn,VisibilityMPH,Wind Direction,Wind SpeedMPH,Gust SpeedMPH,PrecipitationIn,Events,Conditions,WindDirDegrees,DateUTC
12:35 AM,39.2,28.4,65,30.11,10.0,ENE,4.6,-,N/A,,Mostly Cloudy,60,2013-04-02 06:35:00
12:55 AM,37.4,28.4,70,30.11,10.0,NE,3.5,-,N/A,,Scattered Clouds,40,2013-04-02 06:55:00
1:15 AM,37.4,28.4,70,30.11,10.0,Calm,Calm,-,N/A,,Mostly Cloudy,0,2013-04-02 07:15:00
1:35 AM,35.6,28.4,75,30.10,10.0,North,4.6,-,N/A,,Overcast,350,2013-04-02 07:35:00
1:55 AM,35.6,30.2,81,30.10,10.0,North,6.9,-,N/A,,Overcast,350,2013-04-02 07:55:00
2:15 AM,37.4,30.2,75,30.10,10.0,NNE,5.8,-,N/A,,Overcast,20,2013-04-02 08:15:00
2:35 AM,37.4,30.2,75,30.10,10.0,NE,5.8,-,N/A,,Overcast,40,2013-04-02 08:35:00
2:55 AM,37.4,30.2,75,30.09,10.0,NE,6.9,-,N/A,,Overcast,40,2013-04-02 08:55:00
3:15 AM,37.4,30.2,75,30.09,10.0,ENE,6.9,-,N/A,,Overcast,60,2013-04-02 09:15:00
3:35 AM,37.4,30.2,75,30.09,10.0,NNE,6.9,-,N/A,,Overcast,30,2013-04-02 09:35:00
3:55 AM,37.4,30.2,75,30.09,10.0,NE,6.9,-,N/A,,Overcast,40,2013-04-02 09:55:00
4:15 AM,37.4,30.2,75,30.09,10.0,NE,5.8,-,N/A,,Overcast,40,2013-04-02 10:15:00
4:35 AM,37.4,30.2,75,30.08,10.0,NE,5.8,-,N/A,,Overcast,50,2013-04-02 10:35:00
4:55 AM,35.6,30.2,81,30.08,10.0,NNE,5.8,-,N/A,,Overcast,20,2013-04-02 10:55:00
5:15 AM,35.6,30.2,81,30.08,10.0,NNE,6.9,-,N/A,,Overcast,30,2013-04-02 11:15:00
5:35 AM,35.6,30.2,81,30.08,10.0,NE,9.2,-,N/A,,Overcast,50,2013-04-02 11:35:00
5:55 AM,35.6,30.2,81,30.08,10.0,NE,8.1,-,N/A,,Overcast,50,2013-04-02 11:55:00
6:15 AM,35.6,30.2,81,30.08,10.0,NNE,8.1,-,N/A,,Overcast,30,2013-04-02 12:15:00
6:35 AM,35.6,30.2,81,30.09,10.0,NE,5.8,-,N/A,,Overcast,40,2013-04-02 12:35:00
6:55 AM,35.6,30.2,81,30.09,10.0,NE,6.9,-,N/A,,Overcast,40,2013-04-02 12:55:00
7:15 AM,35.6,30.2,81,30.10,10.0,NNE,4.6,-,N/A,,Overcast,20,2013-04-02 13:15:00
7:35 AM,35.6,30.2,81,30.10,10.0,North,8.1,-,N/A,,Overcast,10,2013-04-02 13:35:00
7:55 AM,35.6,30.2,81,30.10,10.0,North,9.2,-,N/A,,Overcast,10,2013-04-02 13:55:00
8:35 AM,37.4,30.2,75,30.10,10.0,North,6.9,-,N/A,,Overcast,10,2013-04-02 14:35:00
8:55 AM,37.4,30.2,75,30.10,10.0,North,10.4,-,N/A,,Overcast,10,2013-04-02 14:55:00
9:15 AM,37.4,30.2,75,30.10,10.0,North,10.4,-,N/A,,Overcast,10,2013-04-02 15:15:00
9:55 AM,39.2,30.2,70,30.10,10.0,North,9.2,-,N/A,,Overcast,10,2013-04-02 15:55:00
10:15 AM,39.2,30.2,70,30.11,10.0,NNE,9.2,-,N/A,,Overcast,30,2013-04-02 16:15:00
10:35 AM,39.2,30.2,70,30.12,10.0,NNE,10.4,-,N/A,,Overcast,20,2013-04-02 16:35:00
10:55 AM,39.2,30.2,70,30.12,10.0,NNE,9.2,-,N/A,,Overcast,20,2013-04-02 16:55:00
11:15 AM,39.2,28.4,65,30.13,10.0,NE,8.1,-,N/A,,Overcast,40,2013-04-02 17:15:00
11:35 AM,39.2,28.4,65,30.13,10.0,North,9.2,-,N/A,,Overcast,10,2013-04-02 17:35:00
12:15 PM,37.4,30.2,75,30.12,10.0,North,9.2,-,N/A,,Overcast,360,2013-04-02 18:15:00
12:35 PM,37.4,30.2,75,30.11,10.0,North,10.4,-,N/A,,Overcast,360,2013-04-02 18:35:00
12:55 PM,39.2,32.0,75,30.11,10.0,North,11.5,-,N/A,,Overcast,350,2013-04-02 18:55:00
1:35 PM,39.2,30.2,70,30.11,10.0,NNW,9.2,-,N/A,,Overcast,340,2013-04-02 19:35:00
1:55 PM,39.2,30.2,70,30.11,10.0,NNW,10.4,-,N/A,,Overcast,340,2013-04-02 19:55:00
2:15 PM,39.2,32.0,75,30.10,10.0,NNW,11.5,-,N/A,,Overcast,330,2013-04-02 20:15:00
2:35 PM,41.0,33.8,76,30.10,10.0,NNW,10.4,-,N/A,,Overcast,340,2013-04-02 20:35:00
2:55 PM,41.0,33.8,76,30.10,10.0,NNW,10.4,-,N/A,,Overcast,330,2013-04-02 20:55:00
3:15 PM,39.2,33.8,81,30.10,10.0,NNW,10.4,-,N/A,,Overcast,330,2013-04-02 21:15:00
3:35 PM,39.2,33.8,81,30.09,9.0,NW,10.4,-,N/A,,Overcast,320,2013-04-02 21:35:00
3:55 PM,39.2,35.6,87,30.09,10.0,NW,10.4,-,N/A,,Overcast,310,2013-04-02 21:55:00
4:15 PM,39.2,35.6,87,30.09,10.0,NW,11.5,-,N/A,,Overcast,310,2013-04-02 22:15:00
4:35 PM,41.0,35.6,81,30.09,10.0,NW,11.5,-,N/A,,Overcast,310,2013-04-02 22:35:00
4:55 PM,41.0,35.6,81,30.09,10.0,NW,11.5,-,N/A,,Overcast,310,2013-04-02 22:55:00
5:15 PM,41.0,35.6,81,30.10,9.0,NW,9.2,-,N/A,,Overcast,310,2013-04-02 23:15:00
5:35 PM,41.0,35.6,81,30.10,9.0,WNW,10.4,-,N/A,,Overcast,300,2013-04-02 23:35:00
5:55 PM,41.0,35.6,81,30.10,10.0,NW,9.2,-,0.01,,Overcast,310,2013-04-02 23:55:00
6:15 PM,41.0,35.6,81,30.10,9.0,NW,9.2,-,N/A,,Overcast,310,2013-04-03 00:15:00
6:35 PM,41.0,35.6,81,30.10,10.0,WNW,6.9,-,N/A,,Overcast,300,2013-04-03 00:35:00
6:55 PM,41.0,35.6,81,30.11,9.0,NW,5.8,-,N/A,,Overcast,310,2013-04-03 00:55:00
7:15 PM,41.0,35.6,81,30.11,8.0,Calm,Calm,-,N/A,,Overcast,0,2013-04-03 01:15:00
7:35 PM,41.0,37.4,87,30.11,5.0,Calm,Calm,-,0.01,,Overcast,0,2013-04-03 01:35:00
7:55 PM,39.2,35.6,87,30.12,10.0,Calm,Calm,-,0.03,,Overcast,0,2013-04-03 01:55:00
8:15 PM,39.2,35.6,87,30.12,10.0,Calm,Calm,-,0.01,,Overcast,0,2013-04-03 02:15:00
8:35 PM,39.2,35.6,87,30.13,10.0,Calm,Calm,-,0.03,,Overcast,0,2013-04-03 02:35:00
8:55 PM,39.2,35.6,87,30.13,9.0,SW,4.6,-,0.03,,Overcast,220,2013-04-03 02:55:00
9:15 PM,39.2,35.6,87,30.14,6.0,SSW,4.6,-,N/A,,Overcast,200,2013-04-03 03:15:00
9:35 PM,39.2,35.6,87,30.14,7.0,South,5.8,-,N/A,,Overcast,180,2013-04-03 03:35:00
9:55 PM,39.2,35.6,87,30.14,10.0,South,5.8,-,N/A,,Overcast,180,2013-04-03 03:55:00
10:15 PM,37.4,35.6,93,30.14,8.0,SSE,5.8,-,N/A,,Overcast,150,2013-04-03 04:15:00
10:35 PM,37.4,35.6,93,30.14,10.0,SE,4.6,-,N/A,,Overcast,140,2013-04-03 04:35:00
10:55 PM,37.4,35.6,93,30.14,10.0,ESE,8.1,-,N/A,,Overcast,120,2013-04-03 04:55:00
11:15 PM,37.4,35.6,93,30.14,10.0,ESE,9.2,-,N/A,,Overcast,120,2013-04-03 05:15:00
11:35 PM,37.4,35.6,93,30.13,10.0,ESE,9.2,-,N/A,,Overcast,120,2013-04-03 05:35:00
11:55 PM,37.4,35.6,93,30.12,10.0,ESE,6.9,-,N/A,,Overcast,110,2013-04-03 05:55:00